ISS DEB (44788 NORAD) Tracking and Keplerian Element Data

This shows tracking and keplerian element data for the satellite.

Feedback or suggestion? Click here.




ElementValue
Catalog44788
NameISS DEB
Epoch Orbit3707
Epoch Day193.08812546
Epoch Year2020
RAAN223.5552
Inclination51.6381
Eccentricity0.0005184
Argument of Perigee76.1182
Mean Anonmoly284.0386
Mean Motion15.56149404
Decay Rate8.681E-05
L11 44788U 98067QT 20193.08812546 .00008681 00000-0 12848-3 0 9999
L22 44788 51.6381 223.5552 0005184 76.1182 284.0386 15.56149404 37071

Live tracking and technical data element details for ISS DEB (NORAD 44788). ISS DEB can be tracked NOW for your location showing map with azimuth and elevation plus other details from your city location.

Track the satellite on the map from your city or location and see movement details for azimuth, elevation, latitude, longitude, range, height, and movement on the map or in text.







IsCatalogInMostPopularTable: catalog: 44788, numindb: 3125
Update: records affected: 1



GetName: 44788 ISS DEB

Hit Count: updated at: Sat, 11 Jul 2020 18:12:09 GMT